STARLINK-32496, 62051

Orbit data source: Space-Track

STARLINK-32496, 62051 is a payload satellite owned by SpaceX/Seattle (US) in LEO that was launched on Thu, 21 Nov 2024 UTC via an FALCON 9 launch vehicle from the Air Force Eastern Test Range (AFETR). Payload-class satellites include a variety of spacecraft equipped with specific instruments for various scientific and technological missions. These include communications satellites like Starlink; space stations such as the ISS; scientific satellites like the Hubble; Earth observation satellites from companies like Planet Labs, Umbra, and HawkEye 360; GPS; miniature CubeSats for education and research; and military/defense satellites.

Loading next visibility...
Identifier
62051, 2024-216V
Orbit
LEO
Country
Flag of USUS
Related business
Manufacturer
SpaceX/Seattle
Mission
Operational Commercial Communications
Bus & Motor
STARLINK V2M, Unknown motor
Mass
730 kg wet, ~700 kg dry
Launch date (UTC)
2024-11-21 (2 years ago)
Launch vehicle
FALCON 9
Launch site
Air Force Eastern Test Range (AFETR)
Object type
Payload
Rocket body
Debris
Shape & HBR
Box + 2 Pan, 17.7 m
Radar Cross Section
33.884 m², Large (>1 m²)

Expand to show TLE details & history
Last TLE update: 14 hours ago

TLE from 14 hours ago
0 STARLINK-32496
1 62051U 24216V   26257.48592673  .00010088  00000-0  37557-3 0  9992
2 62051  43.0003 277.5314 0001668 276.3445  83.7217 15.27584129102664
Epoch: 2026-09-14T11:39Z
TLE epoch observation values (Epoch: 2026-09-14T11:39:44.069Z)
Latitude
0.00001°
Longitude
109.13225°
Altitude
482.687 km
Speed
7.626 km/s
True Right ascension
18h 30m 07s
True Declination
0° 00' 00"
Sunlit
Object was in daylight at epoch
Visualization orbit readout
Latitude
Unknown
Longitude
Unknown
Altitude
Unknown
Speed
Unknown
Apparent Right ascension
Unknown
Apparent Declination
Unknown
Sunlit
N/A
Visualization observer readout
Local Sidereal Time
18:39:21
Azimuth
Unknown
Elevation
Unknown
Doppler factor
Unknown
Orbital elements
Apogee altitude
486.127 km
Perigee altitude
483.837 km
Semi-major axis
6,863.119 km
Eccentricity
0.00017
Inclination
43.0003°
RAAN
277.5314°
Arg. of periapsis
276.3445°
True anomaly
83.7407°
Mean anomaly
83.7217°
Eccentric anomaly
83.7312°
Mean motion
3.81734 °/min
Orbital period
94.31 mins
BSTAR
0.00037557
Loading maneuver chart data...
Computing Atmospheric mass density...
Loading historical data...
Loading historical data...
Loading historical data...
Loading historical data...
Loading historical data...
Loading historical data...
Loading historical data...

Documentation

Showing up to 5 results
|